Location: Newark
(13.6797°N, 8.5297°E)
Time: 15:19:25
(UTC+00:00)

Altair - Pass Details

Date: 29 January 2020
Orbit: 1502 x 1682 km, 47.2° (Epoch: 25 February)

Event Time Altitude Azimuth Distance (km) Brightness Sun altitude
Rises 16:38:08 0° 295° (WNW) 4,864 10.8 9.8°
Reaches altitude 10° 16:42:11 10° 281° (W) 3,849 10.8 8.8°
Maximum altitude 16:49:17 23° 234° (SW) 2,907 10.6 7.2°
Drops below altitude 10° 16:56:14 10° 186° (S) 3,739 9.9 5.7°
Sets 17:00:10 0° 172° (S) 4,694 10.2 4.8°
